TimeEDT,TemperatureF,Dew PointF,Humidity,Sea Level PressureIn,VisibilityMPH,Wind Direction,Wind SpeedMPH,Gust SpeedMPH,PrecipitationIn,Events,Conditions,WindDirDegrees,DateUTC
12:53 AM,75.9,75.0,97,30.04,9.0,Calm,Calm,-,N/A,,Clear,0,2013-09-07 04:53:00
1:53 AM,75.0,75.0,100,30.04,10.0,Calm,Calm,-,N/A,,Clear,0,2013-09-07 05:53:00
2:53 AM,75.0,75.0,100,30.04,9.0,Calm,Calm,-,N/A,,Partly Cloudy,0,2013-09-07 06:53:00
3:53 AM,75.0,75.0,100,30.03,7.0,Calm,Calm,-,N/A,,Clear,0,2013-09-07 07:53:00
4:53 AM,73.9,73.9,100,30.02,5.0,Calm,Calm,-,N/A,,Clear,0,2013-09-07 08:53:00
5:53 AM,73.0,73.0,100,30.02,6.0,Calm,Calm,-,N/A,,Clear,0,2013-09-07 09:53:00
6:53 AM,73.9,73.9,100,30.04,6.0,Calm,Calm,-,N/A,,Partly Cloudy,0,2013-09-07 10:53:00
7:24 AM,73.4,73.4,100,30.01,1.0,Calm,Calm,-,N/A,,Partly Cloudy,0,2013-09-07 11:24:00
7:53 AM,75.0,75.0,100,30.05,1.0,Calm,Calm,-,N/A,,Mostly Cloudy,0,2013-09-07 11:53:00
7:57 AM,75.2,75.2,100,30.02,4.0,NE,3.5,-,N/A,,Mostly Cloudy,50,2013-09-07 11:57:00
8:04 AM,75.2,75.2,100,30.02,1.0,NE,4.6,-,N/A,,Mostly Cloudy,40,2013-09-07 12:04:00
8:17 AM,75.2,75.2,100,30.03,6.0,NE,5.8,-,N/A,,Mostly Cloudy,40,2013-09-07 12:17:00
8:53 AM,77.0,77.0,100,30.06,8.0,NE,4.6,-,N/A,,Clear,40,2013-09-07 12:53:00
9:53 AM,82.0,77.0,85,30.07,10.0,NNE,6.9,-,N/A,,Clear,30,2013-09-07 13:53:00
10:53 AM,84.9,72.0,65,30.09,10.0,ENE,5.8,-,N/A,,Clear,60,2013-09-07 14:53:00
11:53 AM,86.0,68.0,55,30.09,10.0,East,8.1,-,N/A,,Clear,100,2013-09-07 15:53:00
12:53 PM,88.0,68.0,51,30.08,10.0,East,3.5,-,0.00,,Partly Cloudy,90,2013-09-07 16:53:00
1:53 PM,89.1,68.0,50,30.07,10.0,South,9.2,-,N/A,,Partly Cloudy,180,2013-09-07 17:53:00
2:53 PM,90.0,66.9,46,30.04,10.0,Calm,Calm,-,N/A,,Mostly Cloudy,0,2013-09-07 18:53:00
3:53 PM,91.9,66.9,44,30.02,10.0,SSE,3.5,-,N/A,,Scattered Clouds,150,2013-09-07 19:53:00
4:53 PM,88.0,72.0,59,30.00,10.0,South,9.2,-,N/A,,Scattered Clouds,190,2013-09-07 20:53:00
5:53 PM,81.0,75.0,82,30.00,10.0,SW,6.9,-,0.00,,Mostly Cloudy,230,2013-09-07 21:53:00
6:53 PM,80.1,75.0,85,30.00,10.0,SW,6.9,13.8,0.00,,Partly Cloudy,220,2013-09-07 22:53:00
7:53 PM,80.1,77.0,90,30.01,10.0,Calm,Calm,-,N/A,,Partly Cloudy,0,2013-09-07 23:53:00
8:53 PM,79.0,79.0,100,30.02,10.0,Calm,Calm,-,N/A,,Mostly Cloudy,0,2013-09-08 00:53:00
9:53 PM,78.1,78.1,100,30.04,8.0,Calm,Calm,-,0.00,,Partly Cloudy,0,2013-09-08 01:53:00
10:53 PM,77.0,77.0,100,30.04,9.0,Calm,Calm,-,N/A,,Clear,0,2013-09-08 02:53:00
11:53 PM,75.9,75.9,100,30.04,9.0,Calm,Calm,-,N/A,,Clear,0,2013-09-08 03:53:00